Total_Precipitation_Accumulation
1.02 1.05 1.08 1.04 1.02 1.02 1.05 1.19 1.40 1.36 1.12 0.92 0.89 0.91 0.95 0.98 1.06 0.97 0.85 1.00 1.04 1.03 1.05 1.10 1.11 1.10 1.09 1.13 1.22 1.34 1.46 1.53 1.61 1.72 1.84 1.94 2.13 2.43
0.88 0.90 0.93 0.95 1.00 1.04 1.12 1.22 1.36 1.52 1.41 1.08 0.95 0.94 0.98 0.98 1.05 0.92 0.83 0.96 0.91 0.91 0.91 0.92 0.92 0.92 0.94 0.98 1.04 1.13 1.22 1.29 1.37 1.51 1.69 1.85 2.00 2.16
0.84 0.84 0.83 0.86 0.95 1.01 1.10 1.20 1.31 1.44 1.47 1.20 0.99 0.92 0.93 0.88 0.85 0.77 0.73 0.72 0.69 0.79 0.77 0.76 0.78 0.81 0.81 0.86 0.92 0.98 1.05 1.14 1.24 1.35 1.50 1.67 1.81 1.92
0.86 0.88 0.87 0.89 0.97 1.03 1.10 1.16 1.20 1.23 1.26 1.15 0.94 0.84 0.79 0.72 0.68 0.64 0.61 0.60 0.58 0.70 0.69 0.67 0.69 0.70 0.68 0.70 0.77 0.85 0.92 1.00 1.08 1.16 1.24 1.33 1.45 1.61
0.88 0.92 0.93 0.96 0.99 0.98 0.98 0.99 0.98 0.97 0.97 0.95 0.83 0.73 0.69 0.65 0.64 0.58 0.54 0.52 0.51 0.57 0.59 0.58 0.63 0.67 0.65 0.66 0.71 0.76 0.77 0.77 0.79 0.83 0.93 1.03 1.15 1.27
0.94 0.96 0.96 0.96 0.94 0.92 0.89 0.85 0.83 0.84 0.84 0.86 0.82 0.72 0.66 0.62 0.64 0.61 0.55 0.49 0.46 0.45 0.50 0.51 0.58 0.66 0.65 0.60 0.55 0.55 0.56 0.61 0.67 0.72 0.77 0.84 0.91 0.99
1.01 0.97 0.94 0.96 0.93 0.87 0.82 0.79 0.79 0.83 0.87 0.91 0.87 0.75 0.62 0.55 0.52 0.48 0.50 0.50 0.47 0.44 0.47 0.48 0.48 0.47 0.48 0.51 0.54 0.53 0.56 0.60 0.67 0.75 0.81 0.86 0.90 0.96
0.99 0.92 0.87 0.87 0.84 0.83 0.82 0.80 0.84 0.91 1.00 1.03 0.92 0.73 0.53 0.45 0.46 0.53 0.60 0.68 0.60 0.41 0.45 0.46 0.45 0.46 0.43 0.43 0.54 0.58 0.60 0.62 0.63 0.69 0.75 0.78 0.82 0.89
0.83 0.78 0.73 0.69 0.70 0.63 0.69 0.77 0.80 0.88 0.91 0.85 0.75 0.58 0.50 0.48 0.61 0.74 0.71 0.70 0.56 0.40 0.51 0.57 0.51 0.49 0.45 0.48 0.57 0.54 0.56 0.58 0.60 0.66 0.67 0.69 0.73 0.79
0.63 0.58 0.56 0.55 0.55 0.58 0.62 0.68 0.64 0.62 0.62 0.58 0.56 0.54 0.55 0.59 0.72 0.86 0.84 0.77 0.60 0.49 0.53 0.62 0.52 0.50 0.46 0.48 0.55 0.55 0.59 0.62 0.66 0.69 0.68 0.69 0.71 0.75
0.45 0.45 0.46 0.44 0.54 0.68 0.69 0.69 0.58 0.50 0.53 0.58 0.63 0.66 0.68 0.67 0.68 0.81 0.91 0.98 0.83 0.58 0.50 0.54 0.48 0.45 0.46 0.46 0.50 0.58 0.58 0.57 0.57 0.59 0.60 0.62 0.65 0.73
0.40 0.41 0.49 0.50 0.62 0.74 0.68 0.67 0.59 0.50 0.51 0.53 0.51 0.50 0.48 0.50 0.58 0.64 0.88 1.20 1.06 0.78 0.52 0.62 0.64 0.69 0.83 0.53 0.48 0.51 0.51 0.54 0.57 0.59 0.60 0.60 0.63 0.66
0.39 0.39 0.42 0.55 0.64 0.69 0.65 0.55 0.60 0.67 0.61 0.56 0.54 0.51 0.48 0.46 0.46 0.48 0.64 1.13 1.40 1.05 0.56 0.94 1.14 0.85 0.97 0.69 0.48 0.46 0.47 0.55 0.62 0.64 0.69 0.74 0.78 0.86
0.37 0.34 0.39 0.55 0.59 0.58 0.53 0.53 0.63 0.62 0.50 0.53 0.56 0.54 0.52 0.51 0.50 0.52 0.57 0.69 0.92 1.03 0.76 1.10 1.56 1.17 1.21 0.94 0.56 0.46 0.46 0.57 0.76 0.82 0.83 0.94 1.02 1.07
0.41 0.43 0.44 0.45 0.43 0.44 0.48 0.52 0.52 0.47 0.48 0.53 0.55 0.50 0.48 0.50 0.52 0.55 0.56 0.57 0.59 0.62 0.68 0.82 1.16 1.17 1.29 1.19 0.80 0.55 0.56 0.58 0.72 0.89 0.98 1.08 1.18 1.21
0.48 0.50 0.46 0.42 0.40 0.39 0.41 0.41 0.39 0.41 0.51 0.58 0.55 0.51 0.50 0.51 0.54 0.57 0.65 0.66 0.70 0.60 0.55 0.60 0.73 1.01 1.13 0.88 0.91 0.81 0.73 0.80 0.78 0.91 1.07 1.14 1.25 1.40
0.56 0.47 0.43 0.40 0.37 0.36 0.36 0.36 0.37 0.41 0.46 0.49 0.57 0.59 0.56 0.54 0.53 0.54 0.66 0.74 0.81 0.69 0.59 0.53 0.54 0.62 0.77 0.87 0.92 0.77 0.76 0.86 0.98 1.10 1.25 1.22 1.19 1.39
0.58 0.47 0.40 0.39 0.37 0.35 0.36 0.36 0.37 0.41 0.47 0.56 0.60 0.63 0.65 0.65 0.62 0.58 0.64 0.75 0.75 0.64 0.62 0.61 0.63 0.71 0.71 0.69 0.74 0.84 0.86 0.96 1.02 1.06 1.21 1.34 1.26 1.19
0.48 0.41 0.38 0.38 0.38 0.39 0.40 0.42 0.42 0.41 0.50 0.61 0.66 0.66 0.68 0.67 0.67 0.66 0.66 0.71 0.68 0.61 0.60 0.63 0.77 1.08 1.11 0.74 0.54 0.75 1.09 1.17 1.07 1.06 1.14 1.33 1.48 1.30
0.35 0.34 0.34 0.37 0.42 0.47 0.51 0.55 0.55 0.52 0.54 0.58 0.61 0.63 0.68 0.72 0.69 0.66 0.65 0.72 0.75 0.66 0.59 0.55 0.65 1.04 1.46 1.25 0.96 0.81 0.89 1.18 1.36 1.43 1.28 1.16 1.25 1.20
0.31 0.32 0.34 0.40 0.47 0.53 0.59 0.62 0.66 0.67 0.65 0.67 0.64 0.63 0.68 0.78 0.72 0.61 0.63 0.66 0.74 0.72 0.65 0.51 0.48 0.66 1.01 1.23 1.06 0.75 0.80 0.89 1.19 1.67 1.65 1.44 1.24 1.07
0.35 0.38 0.41 0.46 0.55 0.62 0.64 0.66 0.67 0.64 0.65 0.68 0.65 0.65 0.68 0.78 0.78 0.69 0.67 0.71 0.68 0.66 0.62 0.51 0.46 0.55 0.80 1.08 0.91 0.67 0.67 0.68 0.70 0.81 1.25 1.83 2.31 2.29
0.42 0.45 0.47 0.51 0.57 0.62 0.64 0.63 0.63 0.59 0.62 0.71 0.72 0.70 0.73 0.75 0.70 0.72 0.72 0.72 0.73 0.67 0.63 0.59 0.52 0.52 0.59 0.70 0.78 0.68 0.59 0.56 0.57 0.63 0.88 1.16 1.47 1.71